CZ-6A DEB, 61841

Orbit data source: Space-Track

CZ-6A DEB, 61841 is space debris in LEO originally from a launch on Tue, 06 Aug 2024 UTC launched from the Taiyaun Space Center, China (TSC). Debris objects in space refer to the collection of defunct objects orbiting the Earth. Examples of debris include non-operational satellites, rocket bodies, and fragments generated from explosions, collisions, or faulty payload assembly.

Loading next visibility...
Identifier
61841, 2024-140ADH
Orbit
LEO
Country
Flag of CNCN / PRC
Related business
Manufacturer
SAST
Mission
Spacecraft
Bus & Motor
Unknown
Mass
Unknown
Launch date (UTC)
2024-08-06 (2 years ago)
Launch vehicle
Unknown
Launch site
Taiyaun Space Center, China (TSC)
Object type
Payload
Rocket body
Debris
Shape & HBR
Unknown shape, 1.1 m
Radar Cross Section
Medium (>0.1 m² and <1 m²)

Expand to show TLE details & history
Last TLE update: 12 hours ago

TLE from 12 hours ago
0 CZ-6A DEB
1 61841U 24140ADH 26171.33178970  .00004994  00000-0  20825-2 0  9991
2 61841  88.9721 272.3642 0071723 165.9771 194.3436 14.24739452 95453
Epoch: 2026-06-20T07:57Z
TLE epoch observation values (Epoch: 2026-06-20T07:57:46.630Z)
Latitude
-0.00002°
Longitude
-115.62803°
Altitude
862.406 km
Speed
7.395 km/s
True Right ascension
18h 09m 27s
True Declination
0° 00' 00"
Sunlit
Object was in full shadow at epoch
Visualization orbit readout
Latitude
Unknown
Longitude
Unknown
Altitude
Unknown
Speed
Unknown
Apparent Right ascension
Unknown
Apparent Declination
Unknown
Sunlit
N/A
Visualization observer readout
Local Sidereal Time
07:20:16
Azimuth
Unknown
Elevation
Unknown
Doppler factor
Unknown
Orbital elements
Apogee altitude
857.842 km
Perigee altitude
754.784 km
Semi-major axis
7,184.45 km
Eccentricity
0.00717
Inclination
88.9721°
RAAN
272.3642°
Arg. of periapsis
165.9771°
True anomaly
194.14174°
Mean anomaly
194.3436°
Eccentric anomaly
194.2425°
Mean motion
3.56412 °/min
Orbital period
101.01 mins
BSTAR
0.0020825
Loading maneuver chart data...
Computing Atmospheric mass density...
Loading historical data...
Loading historical data...
Loading historical data...
Loading historical data...
Loading historical data...
Loading historical data...
Loading historical data...

Documentation

Showing up to 5 results
|